| time (UTC) | temp F | wind direction | speed knots | gust knots | rain 1hr in | rain 24hr in | rain mn in | humidity % | barometer mb |
| 20260503000549 | 61 | 312 | 0.0 | 0.0 | 0.00 | 0.00 | 0.00 | 36 | 1018.2 |
| 20260503000024 | 61 | 312 | 0.0 | 0.0 | 0.00 | 0.00 | 0.00 | 35 | 1018.2 |
| 20260502235501 | 61 | 312 | 0.0 | 0.9 | 0.00 | 0.00 | 0.00 | 35 | 1018.2 |
| 20260502235041 | 61 | 312 | 0.0 | 0.9 | 0.00 | 0.00 | 0.00 | 34 | 1018.3 |
| 20260502234520 | 61 | 46 | 0.0 | 0.9 | 0.00 | 0.00 | 0.00 | 34 | 1018.3 |
| 20260502234059 | 61 | 321 | 0.0 | 0.9 | 0.00 | 0.00 | 0.00 | 33 | 1018.3 |
| 20260502233533 | 61 | 321 | 0.0 | 0.0 | 0.00 | 0.00 | 0.00 | 35 | 1018.3 |
| 20260502233010 | 62 | 321 | 0.0 | 1.7 | 0.00 | 0.00 | 0.00 | 35 | 1018.4 |
| 20260502232552 | 62 | 321 | 0.0 | 1.7 | 0.00 | 0.00 | 0.00 | 34 | 1018.4 |
| 20260502232030 | 61 | 186 | 0.0 | 0.0 | 0.00 | 0.00 | 0.00 | 34 | 1018.4 |
| 20260502231607 | 61 | 186 | 0.0 | 0.0 | 0.00 | 0.00 | 0.00 | 35 | 1018.4 |
| 20260502231055 | 62 | 186 | 0.0 | 0.0 | 0.00 | 0.00 | 0.00 | 34 | 1018.5 |
| 20260502230528 | 62 | 205 | 0.0 | 0.9 | 0.00 | 0.00 | 0.00 | 34 | 1018.5 |
| 20260502230007 | 62 | 205 | 0.0 | 0.9 | 0.00 | 0.00 | 0.00 | 33 | 1018.6 |
| 20260502225542 | 62 | 205 | 0.0 | 0.9 | 0.00 | 0.00 | 0.00 | 33 | 1018.6 |
| 20260502225019 | 62 | 261 | 0.0 | 1.7 | 0.00 | 0.00 | 0.00 | 32 | 1018.6 |
| 20260502224600 | 62 | 4 | 0.0 | 1.7 | 0.00 | 0.00 | 0.00 | 32 | 1018.6 |
| 20260502224036 | 62 | 150 | 0.0 | 1.7 | 0.00 | 0.00 | 0.00 | 34 | 1018.7 |
| 20260502223512 | 62 | 27 | 0.0 | 2.6 | 0.00 | 0.00 | 0.00 | 31 | 1018.7 |
| 20260502223059 | 62 | 333 | 0.0 | 2.6 | 0.00 | 0.00 | 0.00 | 33 | 1018.7 |
| 20260502222528 | 62 | 3 | 0.0 | 4.3 | 0.00 | 0.00 | 0.00 | 32 | 1018.7 |
| 20260502222003 | 62 | 3 | 0.9 | 4.3 | 0.00 | 0.00 | 0.00 | 31 | 1018.7 |
| 20260502221543 | 62 | 25 | 0.0 | 2.6 | 0.00 | 0.00 | 0.00 | 33 | 1018.7 |
| 20260502221020 | 62 | 323 | 0.0 | 2.6 | 0.00 | 0.00 | 0.00 | 32 | 1018.7 |
| 20260502220601 | 62 | 326 | 0.0 | 2.6 | 0.00 | 0.00 | 0.00 | 34 | 1018.7 |
| 20260502220037 | 62 | 29 | 0.0 | 2.6 | 0.00 | 0.00 | 0.00 | 32 | 1018.8 |
| 20260502215517 | 62 | 264 | 0.0 | 1.7 | 0.00 | 0.00 | 0.00 | 35 | 1018.9 |
| 20260502215054 | 62 | 357 | 0.0 | 5.2 | 0.00 | 0.00 | 0.00 | 33 | 1019.0 |
| 20260502214531 | 62 | 357 | 2.6 | 5.2 | 0.00 | 0.00 | 0.00 | 31 | 1019.0 |
| 20260502214007 | 62 | 323 | 0.0 | 1.7 | 0.00 | 0.00 | 0.00 | 33 | 1019.0 |
| 20260502213548 | 62 | 319 | 0.0 | 1.7 | 0.00 | 0.00 | 0.00 | 33 | 1019.1 |
| 20260502213036 | 62 | 256 | 0.0 | 1.7 | 0.00 | 0.00 | 0.00 | 32 | 1019.0 |
| 20260502212605 | 62 | 257 | 0.0 | 1.7 | 0.00 | 0.00 | 0.00 | 35 | 1019.1 |
| 20260502212041 | 61 | 309 | 0.0 | 3.5 | 0.00 | 0.00 | 0.00 | 35 | 1019.2 |
| 20260502211521 | 62 | 354 | 1.7 | 3.5 | 0.00 | 0.00 | 0.00 | 33 | 1019.1 |
| 20260502211059 | 62 | 14 | 0.0 | 3.5 | 0.00 | 0.00 | 0.00 | 35 | 1019.2 |
| 20260502210535 | 62 | 359 | 0.0 | 3.5 | 0.00 | 0.00 | 0.00 | 35 | 1019.3 |
| 20260502210013 | 62 | 320 | 0.0 | 3.5 | 0.00 | 0.00 | 0.00 | 36 | 1019.5 |
| 20260502205552 | 62 | 338 | 0.0 | 2.6 | 0.00 | 0.00 | 0.00 | 35 | 1019.6 |
| 20260502205027 | 61 | 339 | 0.0 | 5.2 | 0.00 | 0.00 | 0.00 | 36 | 1019.5 |
| 20260502204504 | 61 | 355 | 0.9 | 5.2 | 0.00 | 0.00 | 0.00 | 35 | 1019.5 |
| 20260502204044 | 61 | 15 | 0.0 | 2.6 | 0.00 | 0.00 | 0.00 | 34 | 1019.6 |
| 20260502203521 | 61 | 316 | 0.0 | 1.7 | 0.00 | 0.00 | 0.00 | 36 | 1019.7 |
| 20260502203120 | 61 | 316 | 0.0 | 1.7 | 0.00 | 0.00 | 0.00 | 33 | 1019.7 |
| 20260502202538 | 61 | 159 | 0.0 | 0.9 | 0.00 | 0.00 | 0.00 | 36 | 1019.7 |
| 20260502202014 | 61 | 149 | 0.0 | 1.7 | 0.00 | 0.00 | 0.00 | 36 | 1019.7 |
| 20260502201609 | 61 | 149 | 0.0 | 1.7 | 0.00 | 0.00 | 0.00 | 35 | 1019.7 |
| 20260502201033 | 61 | 314 | 0.0 | 2.6 | 0.00 | 0.00 | 0.00 | 35 | 1019.9 |
| 20260502200507 | 61 | 323 | 0.0 | 2.6 | 0.00 | 0.00 | 0.00 | 33 | 1019.9 |
| 20260502200051 | 61 | 259 | 0.0 | 2.6 | 0.00 | 0.00 | 0.00 | 38 | 1020.0 |
| 20260502195522 | 61 | 330 | 0.0 | 2.6 | 0.00 | 0.00 | 0.00 | 35 | 1020.0 |
| 20260502195103 | 61 | 307 | 0.0 | 1.7 | 0.00 | 0.00 | 0.00 | 37 | 1020.1 |
| 20260502194540 | 60 | 167 | 0.0 | 2.6 | 0.00 | 0.00 | 0.00 | 36 | 1020.0 |
| 20260502194016 | 60 | 20 | 0.9 | 2.6 | 0.00 | 0.00 | 0.00 | 34 | 1020.1 |
| 20260502193558 | 60 | 332 | 0.0 | 1.7 | 0.00 | 0.00 | 0.00 | 37 | 1020.0 |
| 20260502193039 | 60 | 5 | 0.0 | 2.6 | 0.00 | 0.00 | 0.00 | 35 | 1020.1 |
| 20260502192511 | 60 | 314 | 0.0 | 2.6 | 0.00 | 0.00 | 0.00 | 36 | 1020.3 |
| 20260502192049 | 60 | 323 | 0.0 | 2.6 | 0.00 | 0.00 | 0.00 | 35 | 1020.3 |
| 20260502191528 | 60 | 308 | 0.0 | 2.6 | 0.00 | 0.00 | 0.00 | 36 | 1020.3 |
| 20260502191002 | 60 | 308 | 0.9 | 3.5 | 0.00 | 0.00 | 0.00 | 34 | 1020.4 |
| 20260502190542 | 60 | 302 | 0.0 | 3.5 | 0.00 | 0.00 | 0.00 | 34 | 1020.4 |
| 20260502190019 | 60 | 257 | 0.0 | 1.7 | 0.00 | 0.00 | 0.00 | 36 | 1020.5 |
| 20260502185559 | 60 | 8 | 0.0 | 1.7 | 0.00 | 0.00 | 0.00 | 34 | 1020.6 |
| 20260502185035 | 60 | 339 | 0.0 | 1.7 | 0.00 | 0.00 | 0.00 | 36 | 1020.7 |
| 20260502184511 | 59 | 41 | 0.0 | 1.7 | 0.00 | 0.00 | 0.00 | 35 | 1020.7 |
| 20260502184053 | 59 | 315 | 0.0 | 2.6 | 0.00 | 0.00 | 0.00 | 33 | 1020.8 |
| 20260502183528 | 59 | 314 | 0.0 | 5.2 | 0.00 | 0.00 | 0.00 | 36 | 1020.8 |
| 20260502183006 | 59 | 30 | 0.0 | 5.2 | 0.00 | 0.00 | 0.00 | 33 | 1020.8 |
| 20260502182546 | 59 | 344 | 0.9 | 3.5 | 0.00 | 0.00 | 0.00 | 35 | 1020.8 |
| 20260502182021 | 59 | 321 | 0.0 | 4.3 | 0.00 | 0.00 | 0.00 | 36 | 1020.9 |
| 20260502181602 | 59 | 347 | 1.7 | 5.2 | 0.00 | 0.00 | 0.00 | 38 | 1021.0 |
| 20260502181036 | 59 | 27 | 2.6 | 7.8 | 0.00 | 0.00 | 0.00 | 37 | 1021.1 |
| 20260502180512 | 59 | 27 | 3.5 | 7.8 | 0.00 | 0.00 | 0.00 | 37 | 1021.2 |
| 20260502164054 | 57 | 283 | 0.0 | 5.2 | 0.00 | 0.00 | 0.00 | 44 | 1021.5 |
| 20260502163529 | 57 | 13 | 0.0 | 5.2 | 0.00 | 0.00 | 0.00 | 45 | 1021.5 |
| 20260502163004 | 57 | 4 | 0.9 | 3.5 | 0.00 | 0.00 | 0.00 | 48 | 1021.5 |
| 20260502162546 | 57 | 349 | 0.0 | 3.5 | 0.00 | 0.00 | 0.00 | 47 | 1021.5 |
| 20260502162020 | 56 | 349 | 0.0 | 3.5 | 0.00 | 0.00 | 0.00 | 46 | 1021.5 |
| 20260502161603 | 56 | 4 | 0.9 | 3.5 | 0.00 | 0.00 | 0.00 | 46 | 1021.6 |
| 20260502161036 | 56 | 330 | 0.0 | 4.3 | 0.00 | 0.00 | 0.00 | 48 | 1021.4 |
| 20260502160513 | 56 | 349 | 0.9 | 4.3 | 0.00 | 0.00 | 0.00 | 48 | 1021.5 |
| 20260502152054 | 55 | 303 | 0.0 | 3.5 | 0.00 | 0.00 | 0.00 | 54 | 1021.6 |
| 20260502151529 | 54 | 354 | 0.0 | 2.6 | 0.00 | 0.00 | 0.00 | 55 | 1021.6 |
| 20260502151005 | 54 | 337 | 0.0 | 4.3 | 0.00 | 0.00 | 0.00 | 56 | 1021.6 |
| 20260502150546 | 54 | 38 | 1.7 | 4.3 | 0.00 | 0.00 | 0.00 | 55 | 1021.6 |
| 20260502140103 | 49 | 350 | 0.0 | 5.2 | 0.00 | 0.00 | 0.00 | 69 | 1021.5 |
| 20260502130555 | 45 | 22 | 0.0 | 3.5 | 0.00 | 0.00 | 0.00 | 75 | 1021.1 |
| 20260502123540 | 43 | 200 | 0.0 | 0.0 | 0.00 | 0.00 | 0.00 | 77 | 1020.9 |
| 20260502123017 | 42 | 200 | 0.0 | 0.0 | 0.00 | 0.00 | 0.00 | 77 | 1020.8 |
| 20260502122559 | 42 | 200 | 0.0 | 0.0 | 0.00 | 0.00 | 0.00 | 78 | 1020.8 |
| 20260502122034 | 42 | 200 | 0.0 | 0.0 | 0.00 | 0.00 | 0.00 | 78 | 1020.7 |
| 20260502121513 | 41 | 201 | 0.0 | 0.0 | 0.00 | 0.00 | 0.00 | 79 | 1020.7 |
| 20260502121051 | 41 | 200 | 0.0 | 0.0 | 0.00 | 0.00 | 0.00 | 79 | 1020.6 |
| 20260502120528 | 41 | 200 | 0.0 | 0.0 | 0.00 | 0.00 | 0.00 | 79 | 1020.5 |
| 20260502115547 | 41 | 201 | 0.0 | 0.0 | 0.00 | 0.00 | 0.00 | 79 | 1020.3 |
| 20260502115021 | 41 | 200 | 0.0 | 0.0 | 0.00 | 0.00 | 0.00 | 78 | 1020.3 |
| 20260502114603 | 41 | 200 | 0.0 | 0.0 | 0.00 | 0.00 | 0.00 | 78 | 1020.2 |
| 20260502114038 | 41 | 200 | 0.0 | 0.0 | 0.00 | 0.00 | 0.00 | 79 | 1020.1 |
| 20260502113514 | 41 | 201 | 0.0 | 0.0 | 0.00 | 0.00 | 0.00 | 78 | 1020.1 |
| 20260502113106 | 41 | 200 | 0.0 | 0.0 | 0.00 | 0.00 | 0.00 | 78 | 1020.1 |
| 20260502112529 | 41 | 200 | 0.0 | 0.0 | 0.00 | 0.00 | 0.00 | 78 | 1020.0 |
| 20260502112006 | 41 | 200 | 0.0 | 0.0 | 0.00 | 0.00 | 0.00 | 78 | 1019.9 |
| 20260502111547 | 41 | 200 | 0.0 | 0.0 | 0.00 | 0.00 | 0.00 | 77 | 1020.0 |
| 20260502111022 | 41 | 200 | 0.0 | 0.0 | 0.00 | 0.00 | 0.00 | 77 | 1019.9 |
| 20260502110604 | 41 | 200 | 0.0 | 0.0 | 0.00 | 0.00 | 0.00 | 77 | 1019.9 |
| 20260502110043 | 41 | 200 | 0.0 | 0.0 | 0.00 | 0.00 | 0.00 | 77 | 1019.9 |
| 20260502105516 | 41 | 200 | 0.0 | 0.0 | 0.00 | 0.00 | 0.00 | 77 | 1019.9 |
| 20260502105058 | 41 | 200 | 0.0 | 0.0 | 0.00 | 0.00 | 0.00 | 77 | 1019.8 |
| 20260502104536 | 41 | 200 | 0.0 | 0.0 | 0.00 | 0.00 | 0.00 | 77 | 1019.8 |
| 20260502104009 | 41 | 200 | 0.0 | 0.0 | 0.00 | 0.00 | 0.00 | 77 | 1019.7 |
| 20260502103549 | 41 | 200 | 0.0 | 0.0 | 0.00 | 0.00 | 0.00 | 77 | 1019.7 |
| 20260502103025 | 42 | 200 | 0.0 | 0.0 | 0.00 | 0.00 | 0.00 | 76 | 1019.7 |
| 20260502102501 | 42 | 200 | 0.0 | 0.0 | 0.00 | 0.00 | 0.00 | 76 | 1019.6 |
| 20260502102042 | 42 | 200 | 0.0 | 0.0 | 0.00 | 0.00 | 0.00 | 76 | 1019.6 |
| 20260502101518 | 42 | 200 | 0.0 | 0.0 | 0.00 | 0.00 | 0.00 | 76 | 1019.5 |
| 20260502101058 | 42 | 200 | 0.0 | 0.0 | 0.00 | 0.00 | 0.00 | 76 | 1019.5 |
| 20260502100533 | 42 | 200 | 0.0 | 0.0 | 0.00 | 0.00 | 0.00 | 75 | 1019.4 |
| 20260502091028 | 44 | 200 | 0.0 | 0.0 | 0.00 | 0.00 | 0.00 | 71 | 1019.2 |
| 20260502090502 | 44 | 200 | 0.0 | 0.0 | 0.00 | 0.00 | 0.00 | 70 | 1019.2 |
| 20260502071030 | 47 | 201 | 0.0 | 0.0 | 0.00 | 0.00 | 0.00 | 60 | 1018.8 |
| 20260502070503 | 47 | 200 | 0.0 | 0.0 | 0.00 | 0.00 | 0.00 | 60 | 1018.9 |
| 20260502065522 | 48 | 200 | 0.0 | 0.0 | 0.00 | 0.00 | 0.00 | 59 | 1018.9 |
| 20260502065103 | 48 | 200 | 0.0 | 0.0 | 0.00 | 0.00 | 0.00 | 58 | 1018.9 |
| 20260502064545 | 48 | 200 | 0.0 | 0.0 | 0.00 | 0.00 | 0.00 | 58 | 1018.9 |
| 20260502064014 | 48 | 200 | 0.0 | 0.0 | 0.00 | 0.00 | 0.00 | 58 | 1018.9 |
| 20260502063555 | 48 | 200 | 0.0 | 0.0 | 0.00 | 0.00 | 0.00 | 57 | 1018.9 |
| 20260502063034 | 48 | 200 | 0.0 | 0.0 | 0.00 | 0.00 | 0.00 | 57 | 1018.9 |
| 20260502062508 | 49 | 200 | 0.0 | 0.0 | 0.00 | 0.00 | 0.00 | 57 | 1018.9 |
| 20260502062048 | 49 | 200 | 0.0 | 0.0 | 0.00 | 0.00 | 0.00 | 57 | 1018.9 |
| 20260502061524 | 49 | 200 | 0.0 | 0.0 | 0.00 | 0.00 | 0.00 | 57 | 1018.9 |
| 20260502061107 | 49 | 200 | 0.0 | 0.0 | 0.00 | 0.00 | 0.00 | 56 | 1018.9 |
| 20260502060538 | 49 | 200 | 0.0 | 0.0 | 0.00 | 0.00 | 0.00 | 57 | 1018.9 |
| 20260502060027 | 49 | 200 | 0.0 | 0.0 | 0.00 | 0.00 | 0.00 | 56 | 1018.9 |
| 20260502055556 | 49 | 200 | 0.0 | 0.0 | 0.00 | 0.00 | 0.00 | 56 | 1019.0 |
| 20260502055034 | 49 | 200 | 0.0 | 0.0 | 0.00 | 0.00 | 0.00 | 55 | 1019.0 |
| 20260502054509 | 50 | 200 | 0.0 | 0.0 | 0.00 | 0.00 | 0.00 | 55 | 1018.9 |
| 20260502054051 | 50 | 200 | 0.0 | 0.0 | 0.00 | 0.00 | 0.00 | 54 | 1018.9 |
| 20260502053525 | 50 | 200 | 0.0 | 0.0 | 0.00 | 0.00 | 0.00 | 55 | 1018.9 |
| 20260502053002 | 50 | 201 | 0.0 | 0.0 | 0.00 | 0.00 | 0.00 | 55 | 1018.9 |
| 20260502052543 | 50 | 200 | 0.0 | 0.0 | 0.00 | 0.00 | 0.00 | 56 | 1018.8 |
| 20260502052021 | 50 | 200 | 0.0 | 0.9 | 0.00 | 0.00 | 0.00 | 56 | 1018.9 |
| 20260502051603 | 50 | 200 | 0.0 | 0.9 | 0.00 | 0.00 | 0.00 | 55 | 1018.9 |
| 20260502051037 | 50 | 22 | 0.0 | 0.9 | 0.00 | 0.00 | 0.00 | 54 | 1018.8 |
| 20260502050510 | 51 | 22 | 0.0 | 0.9 | 0.00 | 0.00 | 0.00 | 55 | 1018.7 |
| 20260502050051 | 51 | 22 | 0.0 | 0.9 | 0.00 | 0.00 | 0.00 | 56 | 1018.7 |
| 20260502045528 | 51 | 8 | 0.0 | 0.9 | 0.00 | 0.00 | 0.00 | 56 | 1018.7 |
| 20260502045007 | 50 | 8 | 0.0 | 0.9 | 0.00 | 0.00 | 0.00 | 57 | 1018.8 |
| 20260502044546 | 50 | 335 | 0.0 | 0.9 | 0.00 | 0.00 | 0.00 | 57 | 1018.8 |
| 20260502044022 | 50 | 335 | 0.0 | 0.9 | 0.00 | 0.00 | 0.00 | 58 | 1018.8 |
| 20260502043604 | 50 | 335 | 0.0 | 0.0 | 0.00 | 0.00 | 0.00 | 60 | 1018.8 |
| 20260502043050 | 50 | 335 | 0.0 | 0.0 | 0.00 | 0.00 | 0.00 | 60 | 1018.7 |
| 20260502042514 | 49 | 335 | 0.0 | 0.0 | 0.00 | 0.00 | 0.00 | 61 | 1018.7 |
| 20260502042055 | 49 | 335 | 0.0 | 0.0 | 0.00 | 0.00 | 0.00 | 65 | 1018.7 |
| 20260502041553 | 49 | 335 | 0.0 | 0.0 | 0.00 | 0.00 | 0.00 | 66 | 1018.6 |
| 20260502041005 | 49 | 335 | 0.0 | 0.0 | 0.00 | 0.00 | 0.00 | 65 | 1018.6 |
| 20260502040550 | 50 | 335 | 0.0 | 0.0 | 0.00 | 0.00 | 0.00 | 65 | 1018.6 |
| 20260502040042 | 50 | 335 | 0.0 | 0.0 | 0.00 | 0.00 | 0.00 | 65 | 1018.6 |
| 20260502035603 | 50 | 335 | 0.0 | 0.0 | 0.00 | 0.00 | 0.00 | 64 | 1018.6 |
| 20260502035040 | 50 | 335 | 0.0 | 0.0 | 0.00 | 0.00 | 0.00 | 63 | 1018.5 |
| 20260502034514 | 50 | 335 | 0.0 | 0.0 | 0.00 | 0.00 | 0.00 | 63 | 1018.5 |
| 20260502034055 | 51 | 335 | 0.0 | 0.0 | 0.00 | 0.00 | 0.00 | 62 | 1018.5 |
| 20260502033530 | 51 | 335 | 0.0 | 0.0 | 0.00 | 0.00 | 0.00 | 61 | 1018.5 |
| 20260502033006 | 51 | 335 | 0.0 | 0.0 | 0.00 | 0.00 | 0.00 | 59 | 1018.5 |
| 20260502032545 | 51 | 335 | 0.0 | 0.0 | 0.00 | 0.00 | 0.00 | 58 | 1018.4 |
| 20260502032022 | 52 | 335 | 0.0 | 0.0 | 0.00 | 0.00 | 0.00 | 58 | 1018.4 |
| 20260502031603 | 52 | 335 | 0.0 | 0.0 | 0.00 | 0.00 | 0.00 | 58 | 1018.4 |
| 20260502031038 | 53 | 335 | 0.0 | 0.0 | 0.00 | 0.00 | 0.00 | 56 | 1018.2 |
| 20260502030515 | 53 | 335 | 0.0 | 0.0 | 0.00 | 0.00 | 0.00 | 56 | 1018.2 |
| 20260502030117 | 53 | 335 | 0.0 | 0.0 | 0.00 | 0.00 | 0.00 | 54 | 1018.2 |
| 20260502025533 | 53 | 335 | 0.0 | 0.0 | 0.00 | 0.00 | 0.00 | 52 | 1018.1 |
| 20260502025014 | 54 | 335 | 0.0 | 0.0 | 0.00 | 0.00 | 0.00 | 51 | 1018.1 |
| 20260502024603 | 54 | 335 | 0.0 | 0.0 | 0.00 | 0.00 | 0.00 | 51 | 1018.0 |
| 20260502024026 | 54 | 335 | 0.0 | 0.0 | 0.00 | 0.00 | 0.00 | 51 | 1017.9 |
| 20260502023502 | 55 | 335 | 0.0 | 0.0 | 0.00 | 0.00 | 0.00 | 50 | 1017.8 |
| 20260502023100 | 55 | 335 | 0.0 | 0.0 | 0.00 | 0.00 | 0.00 | 49 | 1017.8 |
| 20260502022521 | 55 | 335 | 0.0 | 0.0 | 0.00 | 0.00 | 0.00 | 50 | 1017.7 |
| 20260502022059 | 56 | 335 | 0.0 | 0.0 | 0.00 | 0.00 | 0.00 | 50 | 1017.6 |
| 20260502021535 | 56 | 335 | 0.0 | 0.9 | 0.00 | 0.00 | 0.00 | 48 | 1017.5 |
| 20260502021011 | 56 | 335 | 0.0 | 0.9 | 0.00 | 0.00 | 0.00 | 47 | 1017.4 |
| 20260502020551 | 56 | 335 | 0.0 | 0.9 | 0.00 | 0.00 | 0.00 | 47 | 1017.4 |
| 20260502020028 | 57 | 335 | 0.0 | 0.0 | 0.00 | 0.00 | 0.00 | 48 | 1017.2 |
| 20260502015504 | 57 | 335 | 0.0 | 0.9 | 0.00 | 0.00 | 0.00 | 46 | 1017.1 |
| 20260502015045 | 57 | 335 | 0.0 | 1.7 | 0.00 | 0.00 | 0.00 | 45 | 1017.1 |
| 20260502014524 | 57 | 20 | 0.0 | 1.7 | 0.00 | 0.00 | 0.00 | 45 | 1017.0 |
| 20260502014101 | 57 | 360 | 0.0 | 3.5 | 0.00 | 0.00 | 0.00 | 45 | 1017.0 |
| 20260502013538 | 58 | 360 | 0.0 | 3.5 | 0.00 | 0.00 | 0.00 | 44 | 1016.9 |
| 20260502013015 | 58 | 13 | 0.0 | 1.7 | 0.00 | 0.00 | 0.00 | 44 | 1016.8 |
| 20260502012555 | 58 | 9 | 0.0 | 1.7 | 0.00 | 0.00 | 0.00 | 43 | 1016.7 |
| 20260502012029 | 58 | 327 | 0.0 | 0.9 | 0.00 | 0.00 | 0.00 | 42 | 1016.6 |
| 20260502011504 | 58 | 327 | 0.0 | 0.9 | 0.00 | 0.00 | 0.00 | 43 | 1016.5 |
| 20260502011045 | 59 | 327 | 0.0 | 0.9 | 0.00 | 0.00 | 0.00 | 42 | 1016.5 |
| 20260502010520 | 59 | 327 | 0.0 | 3.5 | 0.00 | 0.00 | 0.00 | 42 | 1016.4 |
| 20260502005537 | 60 | 30 | 0.0 | 1.7 | 0.00 | 0.00 | 0.00 | 39 | 1016.2 |
| 20260502005012 | 60 | 309 | 0.0 | 1.7 | 0.00 | 0.00 | 0.00 | 39 | 1016.2 |
| 20260502004554 | 60 | 320 | 0.0 | 1.7 | 0.00 | 0.00 | 0.00 | 38 | 1016.1 |
| 20260502004029 | 60 | 23 | 0.0 | 1.7 | 0.00 | 0.00 | 0.00 | 38 | 1016.0 |
| 20260502003505 | 61 | 316 | 0.0 | 2.6 | 0.00 | 0.00 | 0.00 | 38 | 1015.9 |
| 20260502003046 | 61 | 316 | 0.0 | 2.6 | 0.00 | 0.00 | 0.00 | 37 | 1015.8 |
| 20260502002527 | 61 | 9 | 0.0 | 4.3 | 0.00 | 0.00 | 0.00 | 37 | 1015.8 |
| 20260502002103 | 61 | 9 | 0.0 | 4.3 | 0.00 | 0.00 | 0.00 | 37 | 1015.8 |
| 20260502001542 | 61 | 328 | 0.0 | 2.6 | 0.00 | 0.00 | 0.00 | 37 | 1015.7 |
| 20260502001013 | 61 | 27 | 0.0 | 3.5 | 0.00 | 0.00 | 0.00 | 36 | 1015.7 |